• In India
  • List of Countries
  • For 7 days
  • Water Temperature
  • Satellite Maps
  • Weather Map
  • Weather Widgets
  • user-avatar
    Login

    Hourly Weather Jewłach

    Today, 26 September, Tuesday

    Time Temperature Precipitation Wind Pressure Humidity
    00:00 +23°C° 0 mm 4 mps 764 mmHg 53%
    01:00 +23°C° 0 mm 4 mps 764 mmHg 54%
    02:00 +22°C° 0 mm 3 mps 764 mmHg 56%
    03:00 +21°C° 0 mm 3 mps 764 mmHg 58%
    04:00 +21°C° 0 mm 2 mps 764 mmHg 60%
    05:00 +20°C° 0 mm 2 mps 764 mmHg 61%
    06:00 +21°C° 0 mm 1 mps 764 mmHg 63%
    07:00 +21°C° 0 mm 2 mps 763 mmHg 58%
    08:00 +24°C° 0 mm 3 mps 763 mmHg 53%
    09:00 +25°C° 0 mm 3 mps 763 mmHg 48%
    10:00 +26°C° 0 mm 3 mps 763 mmHg 46%
    11:00 +27°C° 0 mm 3 mps 763 mmHg 44%
    12:00 +28°C° 0 mm 4 mps 762 mmHg 42%
    13:00 +28°C° 0 mm 4 mps 762 mmHg 41%
    14:00 +28°C° 0 mm 4 mps 762 mmHg 41%
    15:00 +29°C° 0 mm 5 mps 762 mmHg 41%
    16:00 +27°C° 0 mm 5 mps 762 mmHg 45%
    17:00 +26°C° 0 mm 5 mps 762 mmHg 48%
    18:00 +25°C° 0 mm 5 mps 762 mmHg 52%
    19:00 +24°C° 0 mm 6 mps 763 mmHg 55%
    20:00 +23°C° 0 mm 6 mps 763 mmHg 57%
    21:00 +22°C° 0 mm 6 mps 763 mmHg 59%
    22:00 +22°C° 0 mm 6 mps 763 mmHg 60%
    23:00 +21°C° 0 mm 5 mps 763 mmHg 61%

    Tomorrow, 27 September, Wednesday

    Time Temperature Precipitation Wind Pressure Humidity
    00:00 +21°C° 0 mm 4 mps 763 mmHg 62%
    01:00 +20°C° 0.1 mm 4 mps 763 mmHg 62%
    02:00 +20°C° 0.1 mm 3 mps 763 mmHg 63%
    03:00 +20°C° 0.1 mm 3 mps 763 mmHg 64%
    04:00 +20°C° 0.1 mm 2 mps 762 mmHg 66%
    05:00 +19°C° 0.1 mm 2 mps 762 mmHg 67%
    06:00 +19°C° 0.1 mm 2 mps 762 mmHg 69%
    07:00 +19°C° 0.1 mm 2 mps 762 mmHg 68%
    08:00 +19°C° 0.1 mm 2 mps 763 mmHg 68%
    09:00 +20°C° 0.1 mm 2 mps 763 mmHg 67%
    10:00 +20°C° 0.4 mm 2 mps 763 mmHg 67%
    11:00 +20°C° 0.4 mm 3 mps 763 mmHg 68%
    12:00 +21°C° 0.4 mm 3 mps 762 mmHg 68%
    13:00 +21°C° 0.1 mm 3 mps 762 mmHg 67%
    14:00 +21°C° 0.1 mm 3 mps 762 mmHg 66%
    15:00 +21°C° 0.1 mm 3 mps 762 mmHg 66%
    16:00 +20°C° 0.1 mm 3 mps 762 mmHg 69%
    17:00 +20°C° 0.1 mm 3 mps 762 mmHg 73%
    18:00 +19°C° 0.1 mm 3 mps 762 mmHg 77%
    19:00 +19°C° 1.1 mm 3 mps 763 mmHg 79%
    20:00 +19°C° 1.1 mm 3 mps 763 mmHg 81%
    21:00 +18°C° 1.1 mm 2 mps 764 mmHg 83%
    22:00 +18°C° 1.4 mm 2 mps 764 mmHg 84%
    23:00 +18°C° 1.4 mm 3 mps 764 mmHg 84%

    Day after tomorrow, 28 September, Thursday

    Time Temperature Precipitation Wind Pressure Humidity
    00:00 +18°C° 1.4 mm 3 mps 764 mmHg 85%
    01:00 +18°C° 1 mm 3 mps 764 mmHg 85%
    02:00 +17°C° 1 mm 3 mps 764 mmHg 85%
    03:00 +17°C° 1 mm 3 mps 764 mmHg 86%
    04:00 +17°C° 0.3 mm 3 mps 764 mmHg 85%
    05:00 +17°C° 0.3 mm 4 mps 764 mmHg 85%
    06:00 +17°C° 0.3 mm 4 mps 764 mmHg 85%
    07:00 +17°C° 0.4 mm 4 mps 764 mmHg 83%
    08:00 +16°C° 0.4 mm 5 mps 764 mmHg 80%
    09:00 +16°C° 0.4 mm 5 mps 764 mmHg 78%
    10:00 +17°C° 0.4 mm 5 mps 765 mmHg 77%
    11:00 +17°C° 0.4 mm 5 mps 765 mmHg 75%
    12:00 +17°C° 0.4 mm 5 mps 765 mmHg 74%
    13:00 +18°C° 0.2 mm 4 mps 765 mmHg 74%
    14:00 +18°C° 0.2 mm 4 mps 765 mmHg 73%
    15:00 +18°C° 0.2 mm 3 mps 765 mmHg 73%
    16:00 +18°C° 0.2 mm 3 mps 765 mmHg 74%
    17:00 +17°C° 0.2 mm 3 mps 765 mmHg 74%
    18:00 +17°C° 0.2 mm 3 mps 766 mmHg 74%
    19:00 +17°C° 0.4 mm 3 mps 766 mmHg 74%
    20:00 +17°C° 0.4 mm 3 mps 767 mmHg 75%
    21:00 +17°C° 0.4 mm 2 mps 767 mmHg 75%
    22:00 +17°C° 0.4 mm 2 mps 767 mmHg 76%
    23:00 +16°C° 0.4 mm 2 mps 767 mmHg 76%

    29 September, Friday

    Time Temperature Precipitation Wind Pressure Humidity
    00:00 +16°C° 0.4 mm 2 mps 767 mmHg 77%
    01:00 +16°C° 0.3 mm 2 mps 767 mmHg 78%
    02:00 +16°C° 0.3 mm 2 mps 767 mmHg 80%
    03:00 +16°C° 0.3 mm 2 mps 766 mmHg 81%
    04:00 +16°C° 0.2 mm 2 mps 766 mmHg 82%
    05:00 +16°C° 0.2 mm 2 mps 766 mmHg 83%
    06:00 +16°C° 0.2 mm 2 mps 767 mmHg 84%
    07:00 +16°C° 0.2 mm 2 mps 766 mmHg 83%
    08:00 +16°C° 0.2 mm 2 mps 766 mmHg 82%
    09:00 +16°C° 0.2 mm 2 mps 766 mmHg 81%
    10:00 +17°C° 0.1 mm 2 mps 766 mmHg 80%
    11:00 +17°C° 0.1 mm 2 mps 766 mmHg 79%
    12:00 +17°C° 0.1 mm 2 mps 765 mmHg 78%
    13:00 +17°C° 0 mm 2 mps 765 mmHg 75%
    14:00 +18°C° 0 mm 2 mps 765 mmHg 72%
    15:00 +18°C° 0 mm 2 mps 764 mmHg 69%
    16:00 +18°C° 0 mm 2 mps 764 mmHg 71%
    17:00 +18°C° 0 mm 2 mps 764 mmHg 72%
    18:00 +17°C° 0 mm 2 mps 764 mmHg 73%
    19:00 +17°C° 0 mm 2 mps 764 mmHg 73%
    20:00 +17°C° 0 mm 2 mps 764 mmHg 72%
    21:00 +17°C° 0 mm 2 mps 764 mmHg 72%
    22:00 +17°C° 0.1 mm 2 mps 764 mmHg 71%
    23:00 +18°C° 0.1 mm 1 mps 763 mmHg 71%

    30 September, Saturday

    Time Temperature Precipitation Wind Pressure Humidity
    00:00 +18°C° 0.1 mm 1 mps 763 mmHg 71%
    01:00 +18°C° 0.1 mm 1 mps 762 mmHg 72%
    02:00 +18°C° 0.1 mm 1 mps 762 mmHg 73%
    03:00 +18°C° 0.1 mm 1 mps 762 mmHg 74%
    04:00 +18°C° 0 mm 1 mps 762 mmHg 74%
    05:00 +18°C° 0 mm 1 mps 761 mmHg 74%
    06:00 +18°C° 0 mm 1 mps 761 mmHg 75%
    07:00 +19°C° 0 mm 1 mps 761 mmHg 72%
    08:00 +18°C° 0 mm 2 mps 761 mmHg 69%
    09:00 +19°C° 0 mm 2 mps 760 mmHg 66%
    10:00 +20°C° 0 mm 2 mps 760 mmHg 62%
    11:00 +21°C° 0 mm 2 mps 759 mmHg 58%
    12:00 +24°C° 0 mm 2 mps 759 mmHg 54%
    13:00 +24°C° 0.2 mm 2 mps 758 mmHg 54%
    14:00 +24°C° 0.2 mm 2 mps 758 mmHg 53%
    15:00 +25°C° 0.2 mm 2 mps 757 mmHg 53%
    16:00 +24°C° 0.5 mm 2 mps 757 mmHg 58%
    17:00 +23°C° 0.5 mm 2 mps 757 mmHg 64%
    18:00 +21°C° 0.5 mm 2 mps 757 mmHg 70%
    19:00 +20°C° 0.5 mm 2 mps 757 mmHg 71%
    20:00 +20°C° 0.5 mm 2 mps 758 mmHg 73%
    21:00 +19°C° 0.5 mm 2 mps 758 mmHg 75%
    22:00 +19°C° 0.1 mm 2 mps 758 mmHg 73%
    23:00 +19°C° 0.1 mm 3 mps 757 mmHg 71%

    1 October, Sunday

    Time Temperature Precipitation Wind Pressure Humidity
    00:00 +19°C° 0.1 mm 3 mps 757 mmHg 70%
    01:00 +19°C° 0 mm 3 mps 757 mmHg 68%
    02:00 +18°C° 0 mm 4 mps 757 mmHg 67%
    03:00 +18°C° 0 mm 4 mps 758 mmHg 66%
    04:00 +18°C° 0 mm 4 mps 758 mmHg 65%
    05:00 +18°C° 0 mm 4 mps 758 mmHg 64%
    06:00 +18°C° 0 mm 4 mps 758 mmHg 63%
    07:00 +20°C° 0 mm 5 mps 758 mmHg 57%
    08:00 +22°C° 0 mm 5 mps 758 mmHg 50%
    09:00 +23°C° 0 mm 5 mps 758 mmHg 44%
    10:00 +26°C° 0 mm 5 mps 758 mmHg 41%
    11:00 +27°C° 0 mm 5 mps 758 mmHg 37%
    12:00 +28°C° 0 mm 5 mps 758 mmHg 34%
    13:00 +29°C° 0 mm 5 mps 758 mmHg 33%
    14:00 +29°C° 0 mm 4 mps 757 mmHg 32%
    15:00 +30°C° 0 mm 3 mps 757 mmHg 31%
    16:00 +28°C° 0 mm 3 mps 757 mmHg 34%
    17:00 +27°C° 0 mm 2 mps 758 mmHg 37%
    18:00 +25°C° 0 mm 1 mps 758 mmHg 40%
    19:00 +25°C° 0 mm 1 mps 758 mmHg 42%
    20:00 +24°C° 0 mm 1 mps 759 mmHg 43%
    21:00 +24°C° 0 mm 1 mps 759 mmHg 45%
    22:00 +23°C° 0 mm 1 mps 759 mmHg 49%
    23:00 +22°C° 0 mm 1 mps 759 mmHg 54%
    Show more